{"data":{"norad_id":54193,"epoch":"2026-05-25T02:33:21.687264Z","epoch_age_seconds":66016,"freshness":"FRESH","line1":"1 54193U 22141AN  26145.10650101 -.00000183  00000+0  66010-5 0  9994","line2":"2 54193  53.2112  11.1125 0001634  76.1342 283.9832 15.08853293197530","mean_motion":15.08853293,"eccentricity":0.0001634,"inclination_deg":53.2112,"raan_deg":11.1125,"arg_perigee_deg":76.1342,"mean_anomaly_deg":283.9832,"bstar":6.601e-6,"rev_number":19753,"period_min":95.436713872752,"perigee_km":538.57238286291,"apogee_km":540.83313289579,"semimajor_km":6917.8397578794,"source":"CELESTRAK","updated_at":"2026-05-25T13:38:17.683837Z"}}